When you browse on this site, cookies collect data to enhance your experience and personalize the content and advertising you see.
Visit our Privacy Policy to learn more. By continuing to use the site, you agree to this use of cookies and data.
  • In United Kingdom
  • List of Countries
  • For 7 days
  • Water Temperature
  • Weather Map
  • Weather Widgets
  • user-avatar
    Login

    Hourly Weather Aberlour

    Today, 29 February, Saturday

    Time Temperature Precipitation Wind Pressure Humidity
    00:00 +1°C° 0 mm 2 mps 718 mmHg 96%
    01:00 +1°C° 0.1 mm 3 mps 717 mmHg 96%
    02:00 +1°C° 0.1 mm 3 mps 715 mmHg 96%
    03:00 +1°C° 0.1 mm 4 mps 714 mmHg 96%
    04:00 +3°C° 0.7 mm 4 mps 713 mmHg 97%
    05:00 +3°C° 0.7 mm 4 mps 711 mmHg 97%
    06:00 +4°C° 0.7 mm 3 mps 710 mmHg 97%
    07:00 +3°C° 1.2 mm 4 mps 709 mmHg 96%
    08:00 +2°C° 1.2 mm 5 mps 709 mmHg 95%
    09:00 +2°C° 1.2 mm 6 mps 708 mmHg 95%
    10:00 +2°C° 0.1 mm 6 mps 708 mmHg 88%
    11:00 +2°C° 0.1 mm 6 mps 708 mmHg 81%
    12:00 +2°C° 0.1 mm 5 mps 709 mmHg 74%
    13:00 +2°C° 0 mm 6 mps 708 mmHg 72%
    14:00 +1°C° 0 mm 6 mps 708 mmHg 70%
    15:00 +1°C° 0 mm 6 mps 707 mmHg 69%
    16:00 -1°C° 0 mm 6 mps 706 mmHg 74%
    17:00 -2°C° 0 mm 7 mps 705 mmHg 79%
    18:00 -3°C° 0 mm 7 mps 705 mmHg 84%
    19:00 -3°C° 0 mm 7 mps 703 mmHg 86%
    20:00 -3°C° 0 mm 6 mps 702 mmHg 88%
    21:00 -3°C° 0 mm 6 mps 701 mmHg 90%
    22:00 -2°C° 0.1 mm 5 mps 701 mmHg 91%
    23:00 -2°C° 0.1 mm 4 mps 701 mmHg 92%

    Tomorrow, 1 March, Sunday

    Time Temperature Precipitation Wind Pressure Humidity
    00:00 -2°C° 0.1 mm 4 mps 701 mmHg 93%
    01:00 -2°C° 0.1 mm 4 mps 701 mmHg 91%
    02:00 -1°C° 0.1 mm 4 mps 701 mmHg 89%
    03:00 0°C° 0.1 mm 5 mps 701 mmHg 87%
    04:00 0°C° 0 mm 5 mps 702 mmHg 87%
    05:00 -2°C° 0 mm 6 mps 702 mmHg 86%
    06:00 -2°C° 0 mm 6 mps 703 mmHg 86%
    07:00 -1°C° 0 mm 5 mps 704 mmHg 85%
    08:00 0°C° 0 mm 5 mps 704 mmHg 84%
    09:00 0°C° 0 mm 4 mps 705 mmHg 83%
    10:00 +1°C° 0.1 mm 5 mps 706 mmHg 82%
    11:00 +2°C° 0.1 mm 6 mps 707 mmHg 82%
    12:00 +3°C° 0.1 mm 6 mps 708 mmHg 81%
    13:00 +3°C° 0.1 mm 7 mps 708 mmHg 79%
    14:00 +2°C° 0.1 mm 8 mps 708 mmHg 76%
    15:00 +2°C° 0.1 mm 9 mps 708 mmHg 74%
    16:00 +1°C° 0 mm 8 mps 708 mmHg 76%
    17:00 0°C° 0 mm 7 mps 707 mmHg 78%
    18:00 -1°C° 0 mm 7 mps 707 mmHg 80%
    19:00 -1°C° 0.2 mm 8 mps 707 mmHg 82%
    20:00 0°C° 0.2 mm 10 mps 708 mmHg 84%
    21:00 -1°C° 0.2 mm 11 mps 708 mmHg 85%
    22:00 -1°C° 0 mm 9 mps 708 mmHg 85%
    23:00 -1°C° 0 mm 8 mps 709 mmHg 85%

    Day after tomorrow, 2 March, Monday

    Time Temperature Precipitation Wind Pressure Humidity
    00:00 -2°C° 0 mm 6 mps 709 mmHg 85%
    01:00 -2°C° 0 mm 6 mps 710 mmHg 85%
    02:00 -2°C° 0 mm 6 mps 710 mmHg 85%
    03:00 0°C° 0 mm 5 mps 711 mmHg 85%
    04:00 -1°C° 0 mm 5 mps 711 mmHg 87%
    05:00 -1°C° 0 mm 5 mps 711 mmHg 89%
    06:00 -1°C° 0 mm 4 mps 712 mmHg 91%
    07:00 0°C° 0 mm 4 mps 712 mmHg 88%
    08:00 0°C° 0 mm 4 mps 712 mmHg 86%
    09:00 +1°C° 0 mm 4 mps 713 mmHg 83%
    10:00 +3°C° 0 mm 4 mps 713 mmHg 81%
    11:00 +3°C° 0 mm 4 mps 714 mmHg 78%
    12:00 +4°C° 0 mm 4 mps 714 mmHg 76%
    13:00 +4°C° 0.1 mm 4 mps 715 mmHg 76%
    14:00 +4°C° 0.1 mm 4 mps 715 mmHg 77%
    15:00 +4°C° 0.1 mm 4 mps 715 mmHg 78%
    16:00 +3°C° 0 mm 4 mps 715 mmHg 82%
    17:00 +1°C° 0 mm 4 mps 716 mmHg 86%
    18:00 0°C° 0 mm 4 mps 716 mmHg 91%
    19:00 0°C° 0 mm 4 mps 717 mmHg 90%
    20:00 0°C° 0 mm 4 mps 717 mmHg 90%
    21:00 0°C° 0 mm 4 mps 718 mmHg 90%
    22:00 0°C° 0 mm 4 mps 718 mmHg 91%
    23:00 +1°C° 0 mm 3 mps 719 mmHg 92%

    3 March, Tuesday

    Time Temperature Precipitation Wind Pressure Humidity
    00:00 0°C° 0 mm 3 mps 719 mmHg 93%
    01:00 +1°C° 0.4 mm 3 mps 720 mmHg 94%
    02:00 +2°C° 0.4 mm 2 mps 720 mmHg 96%
    03:00 +2°C° 0.4 mm 2 mps 720 mmHg 97%
    04:00 +2°C° 0.1 mm 2 mps 721 mmHg 96%
    05:00 +1°C° 0.1 mm 3 mps 722 mmHg 95%
    06:00 +1°C° 0.1 mm 3 mps 722 mmHg 94%
    07:00 +1°C° 0 mm 4 mps 723 mmHg 92%
    08:00 +1°C° 0 mm 4 mps 723 mmHg 89%
    09:00 +1°C° 0 mm 5 mps 724 mmHg 87%
    10:00 +2°C° 0.1 mm 5 mps 725 mmHg 84%
    11:00 +3°C° 0.1 mm 5 mps 725 mmHg 81%
    12:00 +5°C° 0.1 mm 5 mps 726 mmHg 78%
    13:00 +5°C° 0.3 mm 5 mps 726 mmHg 78%
    14:00 +5°C° 0.3 mm 5 mps 727 mmHg 79%
    15:00 +5°C° 0.3 mm 5 mps 727 mmHg 80%
    16:00 +4°C° 0.2 mm 4 mps 727 mmHg 83%
    17:00 +3°C° 0.2 mm 4 mps 728 mmHg 87%
    18:00 +1°C° 0.2 mm 4 mps 729 mmHg 90%
    19:00 +1°C° 0 mm 4 mps 729 mmHg 91%
    20:00 +1°C° 0 mm 5 mps 730 mmHg 91%
    21:00 +1°C° 0 mm 5 mps 730 mmHg 92%
    22:00 +1°C° 0 mm 6 mps 731 mmHg 92%
    23:00 +1°C° 0 mm 6 mps 731 mmHg 92%

    4 March, Wednesday

    Time Temperature Precipitation Wind Pressure Humidity
    00:00 0°C° 0 mm 7 mps 732 mmHg 92%
    01:00 0°C° 0 mm 7 mps 732 mmHg 92%
    02:00 0°C° 0 mm 7 mps 732 mmHg 93%
    03:00 0°C° 0 mm 7 mps 732 mmHg 94%
    04:00 0°C° 0 mm 7 mps 733 mmHg 93%
    05:00 0°C° 0 mm 7 mps 733 mmHg 93%
    06:00 0°C° 0 mm 7 mps 733 mmHg 92%
    07:00 -1°C° 0.3 mm 7 mps 734 mmHg 92%
    08:00 -1°C° 0.3 mm 7 mps 734 mmHg 92%
    09:00 -1°C° 0.3 mm 7 mps 734 mmHg 92%
    10:00 +1°C° 0.1 mm 6 mps 735 mmHg 89%
    11:00 +1°C° 0.1 mm 6 mps 735 mmHg 86%
    12:00 +1°C° 0.1 mm 6 mps 735 mmHg 83%
    13:00 +2°C° 0 mm 6 mps 735 mmHg 81%
    14:00 +2°C° 0 mm 5 mps 735 mmHg 78%
    15:00 +2°C° 0 mm 5 mps 735 mmHg 75%
    16:00 +1°C° 0 mm 4 mps 735 mmHg 78%
    17:00 0°C° 0 mm 4 mps 735 mmHg 81%
    18:00 0°C° 0 mm 3 mps 735 mmHg 83%
    19:00 +1°C° 0 mm 2 mps 736 mmHg 84%
    20:00 +1°C° 0 mm 2 mps 736 mmHg 85%
    21:00 -1°C° 0 mm 2 mps 736 mmHg 86%
    22:00 -1°C° 0 mm 2 mps 736 mmHg 87%
    23:00 -2°C° 0 mm 2 mps 735 mmHg 88%

    5 March, Thursday

    Time Temperature Precipitation Wind Pressure Humidity
    00:00 -2°C° 0 mm 2 mps 735 mmHg 88%
    01:00 -2°C° 0 mm 2 mps 735 mmHg 88%
    02:00 -2°C° 0 mm 2 mps 735 mmHg 87%
    03:00 -2°C° 0 mm 2 mps 735 mmHg 87%
    04:00 -2°C° 0 mm 2 mps 734 mmHg 86%
    05:00 -2°C° 0 mm 2 mps 734 mmHg 85%
    06:00 -2°C° 0 mm 2 mps 734 mmHg 85%
    07:00 -1°C° 0 mm 2 mps 734 mmHg 81%
    08:00 +1°C° 0 mm 2 mps 734 mmHg 76%
    09:00 +2°C° 0 mm 2 mps 734 mmHg 72%
    10:00 +3°C° 0 mm 2 mps 734 mmHg 68%
    11:00 +4°C° 0 mm 2 mps 734 mmHg 63%
    12:00 +5°C° 0 mm 2 mps 734 mmHg 59%
    13:00 +5°C° 0 mm 2 mps 734 mmHg 59%
    14:00 +5°C° 0 mm 2 mps 733 mmHg 60%
    15:00 +5°C° 0 mm 2 mps 733 mmHg 60%
    16:00 +4°C° 0 mm 2 mps 733 mmHg 67%
    17:00 +3°C° 0 mm 2 mps 732 mmHg 74%
    18:00 +1°C° 0 mm 2 mps 732 mmHg 81%
    19:00 +1°C° 0 mm 2 mps 732 mmHg 81%
    20:00 -1°C° 0 mm 2 mps 732 mmHg 81%
    21:00 -1°C° 0 mm 2 mps 732 mmHg 80%
    22:00 -1°C° 0 mm 2 mps 731 mmHg 80%
    23:00 -1°C° 0 mm 2 mps 731 mmHg 79%
    Show more